CAPE
452 602 465 551 723 463 851 552 619 1156 899 1027 1465 1177 1187 1605 1125 1113 1347 1098 1207 911
748 848 1040 535 934 1248 1079 1395 1216 878 0 414 718 1435 1577 1631 1323 1015 1244 947 1051 1107
987 1155 1158 1073 966 904 758 937 926 669 486 6 288 1833 1621 1477 1473 1281 1283 1255 1485 1465
946 812 773 775 750 1223 1338 1241 1063 1022 888 1167 1372 1314 1460 1471 1242 1121 1234 1112 1072 1101
1118 1096 1181 1122 529 678 1056 1123 899 772 826 1268 1728 1555 1376 1262 1293 1185 1169 1470 1164 1201
1665 1632 1635 1667 1420 635 476 681 875 961 792 532 644 1803 2023 1798 1421 1159 1137 1368 1263 1075
1772 1765 1697 1798 1761 1545 1359 1264 1283 1346 1349 1415 1243 999 1671 1941 1910 1623 1483 1456 1806 1545
1777 1818 1794 1727 1680 1988 1933 1676 1528 1605 1808 1659 1550 1470 1276 973 1537 1899 1739 1546 1638 1495
1595 1800 1854 1869 1905 1802 1978 1985 1804 1628 1654 1791 1867 1891 1732 1494 1250 1075 1133 1085 998 1359
2543 2300 2118 2140 2021 1848 1879 2162 2088 2173 2243 2123 2225 2204 2044 1667 1129 921 1057 1191 1255 994
3118 3145 3356 3258 3050 2880 2750 2495 2311 2206 1893 1811 1632 1910 2046 1620 1363 1216 990 934 1202 1219
3205 3188 3032 2852 2760 2792 2754 2412 2311 2056 1862 1808 1842 2004 2035 1501 1304 1109 1121 975 898 994
3265 3070 2471 2152 1776 1705 1188 875 717 549 525 480 609 911 1375 1154 1280 1068 1109 1117 1143 1062
2074 1759 1359 999 693 549 324 130 60 49 101 147 129 154 296 647 553 687 676 758 770 877
CIN
-47 -36 -40 -35 -26 -37 -28 -34 -34 -36 -51 -28 -15 -20 -16 -10 -19 -23 -18 -17 -26 -43
-38 -28 -26 -36 -21 -15 -17 -18 -39 -41 -0 -104 -58 -33 -14 -6 -9 -22 -27 -38 -31 -32
-37 -29 -30 -27 -26 -23 -30 -25 -33 -58 -90 -98 -105 -18 -15 -19 -18 -24 -24 -18 -10 -16
-63 -70 -68 -65 -52 -32 -23 -23 -34 -50 -63 -47 -34 -38 -17 -21 -32 -38 -29 -28 -20 -23
-77 -82 -79 -81 -110 -80 -55 -50 -49 -45 -49 -30 -18 -25 -28 -35 -38 -38 -36 -23 -23 -19
-67 -77 -85 -75 -69 -109 -108 -90 -66 -57 -72 -82 -73 -17 -9 -14 -30 -37 -34 -21 -20 -26
-73 -82 -84 -69 -68 -65 -67 -72 -71 -63 -62 -59 -56 -60 -21 -10 -8 -12 -22 -17 -8 -9
-97 -95 -78 -74 -65 -42 -41 -46 -45 -47 -45 -46 -46 -50 -47 -46 -14 -4 -5 -8 -5 -7
-108 -95 -78 -70 -48 -37 -26 -25 -26 -31 -29 -24 -20 -18 -13 -20 -22 -23 -19 -25 -33 -16
-49 -53 -56 -50 -38 -34 -21 -8 -10 -8 -4 -16 -16 -11 -8 -12 -21 -21 -20 -24 -22 -32
-21 -11 -10 -6 -4 -6 -6 -7 -8 -9 -14 -14 -35 -21 -20 -37 -32 -28 -30 -36 -28 -20
-26 -15 -10 -10 -9 -6 -2 -13 -15 -24 -25 -20 -17 -11 -6 -25 -25 -34 -33 -44 -40 -34
-14 -24 -54 -78 -85 -68 -94 -94 -83 -98 -93 -100 -83 -55 -13 -14 -9 -11 -15 -22 -22 -20
-122 -130 -140 -162 -171 -161 -182 -231 -257 -255 -180 -118 -103 -79 -33 -8 -12 -13 -13 -12 -21 -20
Wind_Speed
16 1 1 16 4 6 5 19 22 10 18 23 21 18 12 11 13 10 4 17 19 10
20 17 14 20 21 23 6 19 10 7 8 19 23 21 21 11 9 13 14 8 19 20
21 22 20 17 18 19 24 15 6 6 9 21 23 22 6 7 2 16 9 14 19 22
21 20 22 21 20 17 11 4 8 5 7 10 21 10 16 18 26 20 14 12 15 13
20 18 18 19 20 17 18 9 11 22 12 25 22 17 3 6 6 3 11 9 9 5
18 17 16 16 15 13 13 14 10 7 12 23 26 23 13 10 5 2 15 12 8 7
17 15 13 10 9 11 8 7 4 3 2 5 9 15 24 18 9 9 17 12 8 8
17 15 13 11 8 2 5 4 3 7 8 9 16 18 19 18 24 22 18 19 18 24
16 13 12 11 8 6 4 1 2 3 9 13 17 19 18 14 20 24 13 20 22 19
9 10 8 6 5 6 4 6 8 10 13 15 18 16 15 21 24 25 28 19 19 24
3 4 6 6 6 5 3 2 5 14 18 23 27 28 32 28 23 27 30 30 27 27
6 7 6 4 6 9 14 12 14 18 23 26 30 31 33 33 31 29 29 30 28 27
7 6 10 14 16 17 18 21 22 23 26 30 34 34 34 31 30 30 27 28 26 23
10 12 15 16 18 20 23 25 28 29 31 31 32 34 31 29 27 28 30 26 26 27
Wind_Direction
158 152 122 284 343 118 7 194 212 350 299 263 285 208 183 134 160 59 184 195 217 112
163 158 153 174 185 198 255 292 339 77 61 220 244 238 231 151 105 9 351 116 212 222
165 170 169 167 180 185 214 296 12 33 5 217 255 262 17 31 21 331 7 353 281 244
163 168 178 182 181 177 153 36 356 36 358 343 302 175 322 313 272 223 325 351 337 341
154 153 159 173 180 174 184 157 168 210 180 275 293 312 128 358 1 25 343 356 355 18
149 149 152 161 167 169 179 186 181 173 191 258 289 301 324 330 339 346 326 333 344 344
150 151 153 152 156 172 170 175 182 204 252 319 323 316 304 311 314 316 317 326 333 335
152 153 156 160 159 124 179 195 286 316 312 313 314 312 310 309 301 305 311 310 308 303
157 155 160 162 157 159 171 223 265 277 319 321 318 315 314 312 307 301 300 304 304 306
145 156 157 148 154 177 184 344 333 325 320 318 318 318 316 311 305 300 295 299 301 299
69 29 7 3 359 0 353 307 332 326 317 311 306 306 299 306 309 301 293 290 292 292
357 353 359 1 352 348 338 341 340 330 320 313 307 305 301 300 301 300 297 292 288 290
9 9 2 352 346 341 337 331 330 326 320 313 307 306 303 303 300 297 298 294 292 290
8 353 352 349 344 336 330 328 325 323 320 316 313 308 306 305 302 297 294 294 293 291